Time,TemperatureF,DewpointF,PressureIn,WindDirection,WindDirectionDegrees,WindSpeedMPH,WindSpeedGustMPH,Humidity,HourlyPrecipIn,Conditions,Clouds,dailyrainin,SolarRadiationWatts/m^2,SoftwareType,DateUTC
2013-07-05 00:01:00,70.0,60.0,-100.00,SSE,165,7.0,8.0,70,0.00,,,0.00,0.000000,,2013-07-05 05:01:00,
2013-07-05 00:22:00,70.0,59.0,-100.00,South,174,7.0,11.0,67,0.00,,,0.00,0.000000,,2013-07-05 05:22:00,
2013-07-05 00:33:00,70.0,59.0,-100.00,South,174,7.0,11.0,67,0.00,,,0.00,0.000000,,2013-07-05 05:33:00,
2013-07-05 00:43:00,70.0,59.0,-100.00,South,174,7.0,11.0,67,0.00,,,0.00,0.000000,,2013-07-05 05:43:00,
2013-07-05 00:52:00,70.0,59.0,-100.00,South,174,7.0,11.0,67,0.00,,,0.00,0.000000,,2013-07-05 05:52:00,
2013-07-05 01:02:00,70.0,59.0,-100.00,South,174,7.0,11.0,67,0.00,,,0.00,0.000000,,2013-07-05 06:02:00,
2013-07-05 01:23:00,70.0,57.0,-100.00,South,181,9.0,14.0,64,0.00,,,0.00,0.000000,,2013-07-05 06:23:00,
2013-07-05 01:34:00,70.0,57.0,-100.00,South,181,9.0,14.0,64,0.00,,,0.00,0.000000,,2013-07-05 06:34:00,
2013-07-05 01:44:00,70.0,57.0,-100.00,South,181,9.0,14.0,64,0.00,,,0.00,0.000000,,2013-07-05 06:44:00,
2013-07-05 01:53:00,70.0,57.0,-100.00,South,181,9.0,14.0,64,0.00,,,0.00,0.000000,,2013-07-05 06:53:00,
2013-07-05 02:02:00,70.0,57.0,-100.00,South,181,9.0,14.0,64,0.00,,,0.00,0.000000,,2013-07-05 07:02:00,
2013-07-05 02:23:00,70.0,56.0,-100.00,South,190,8.0,14.0,62,0.00,,,0.00,0.000000,,2013-07-05 07:23:00,
2013-07-05 02:34:00,70.0,56.0,-100.00,South,190,8.0,14.0,62,0.00,,,0.00,0.000000,,2013-07-05 07:34:00,
2013-07-05 02:43:00,70.0,56.0,-100.00,South,190,8.0,14.0,62,0.00,,,0.00,0.000000,,2013-07-05 07:43:00,
2013-07-05 02:53:00,70.0,56.0,-100.00,South,190,8.0,14.0,62,0.00,,,0.00,0.000000,,2013-07-05 07:53:00,
2013-07-05 03:02:00,70.0,56.0,-100.00,South,190,8.0,14.0,62,0.00,,,0.00,0.000000,,2013-07-05 08:02:00,
2013-07-05 03:04:00,69.0,56.0,-100.00,SSW,202,8.0,14.0,64,0.00,,,0.00,0.000000,,2013-07-05 08:04:00,
2013-07-05 03:23:00,69.0,56.0,-100.00,SSW,202,8.0,14.0,64,0.00,,,0.00,0.000000,,2013-07-05 08:23:00,
2013-07-05 03:33:00,69.0,56.0,-100.00,SSW,202,8.0,14.0,64,0.00,,,0.00,0.000000,,2013-07-05 08:33:00,
2013-07-05 03:44:00,69.0,56.0,-100.00,SSW,202,8.0,14.0,64,0.00,,,0.00,0.000000,,2013-07-05 08:44:00,
2013-07-05 03:57:00,69.0,56.0,-100.00,SSW,202,8.0,14.0,64,0.00,,,0.00,0.000000,,2013-07-05 08:57:00,
2013-07-05 04:04:00,68.0,56.0,-100.00,SSW,201,9.0,13.0,65,0.00,,,-99.99,0.000000,,2013-07-05 09:04:00,
2013-07-05 04:37:00,68.0,56.0,-100.00,SSW,201,9.0,13.0,65,0.00,,,-99.99,0.000000,,2013-07-05 09:37:00,
2013-07-05 04:48:00,68.0,56.0,-100.00,SSW,201,9.0,13.0,65,0.00,,,-99.99,0.000000,,2013-07-05 09:48:00,
2013-07-05 04:56:00,68.0,56.0,-100.00,SSW,201,9.0,13.0,65,0.00,,,-99.99,0.000000,,2013-07-05 09:56:00,
2013-07-05 05:04:00,68.0,57.0,-100.00,SSW,200,8.0,12.0,67,0.00,,,0.00,0.000000,,2013-07-05 10:04:00,
2013-07-05 05:38:00,68.0,57.0,-100.00,SSW,200,8.0,12.0,67,0.00,,,0.00,0.000000,,2013-07-05 10:38:00,
2013-07-05 05:47:00,68.0,57.0,-100.00,SSW,200,8.0,12.0,67,0.00,,,0.00,0.000000,,2013-07-05 10:47:00,
2013-07-05 05:57:00,68.0,57.0,-100.00,SSW,200,8.0,12.0,67,0.00,,,0.00,0.000000,,2013-07-05 10:57:00,
2013-07-05 06:04:00,69.0,57.0,-100.00,SSW,207,8.0,15.0,65,0.00,,,0.00,12.000000,,2013-07-05 11:04:00,
2013-07-05 06:25:00,69.0,57.0,-100.00,SSW,207,8.0,15.0,65,0.00,,,0.00,12.000000,,2013-07-05 11:25:00,
2013-07-05 06:38:00,69.0,57.0,-100.00,SSW,207,8.0,15.0,65,0.00,,,0.00,12.000000,,2013-07-05 11:38:00,
2013-07-05 06:50:00,69.0,57.0,-100.00,SSW,207,8.0,15.0,65,0.00,,,0.00,12.000000,,2013-07-05 11:50:00,
2013-07-05 07:00:00,69.0,57.0,-100.00,SSW,207,8.0,15.0,65,0.00,,,0.00,12.000000,,2013-07-05 12:00:00,
2013-07-05 07:04:00,71.0,58.0,-100.00,SSW,206,9.0,14.0,63,0.00,,,0.00,123.000000,,2013-07-05 12:04:00,
2013-07-05 07:26:00,71.0,58.0,-100.00,SSW,206,9.0,14.0,63,0.00,,,0.00,123.000000,,2013-07-05 12:26:00,
2013-07-05 07:38:00,71.0,58.0,-100.00,SSW,206,9.0,14.0,63,0.00,,,0.00,123.000000,,2013-07-05 12:38:00,
2013-07-05 07:50:00,71.0,58.0,-100.00,SSW,206,9.0,14.0,63,0.00,,,0.00,123.000000,,2013-07-05 12:50:00,
2013-07-05 08:00:00,71.0,58.0,-100.00,SSW,206,9.0,14.0,63,0.00,,,0.00,123.000000,,2013-07-05 13:00:00,
2013-07-05 08:04:00,72.0,57.0,-100.00,SSW,206,10.0,16.0,59,0.00,,,0.00,263.000000,,2013-07-05 13:04:00,
2013-07-05 08:26:00,72.0,57.0,-100.00,SSW,206,10.0,16.0,59,0.00,,,0.00,263.000000,,2013-07-05 13:26:00,
2013-07-05 08:39:00,72.0,57.0,-100.00,SSW,206,10.0,16.0,59,0.00,,,0.00,263.000000,,2013-07-05 13:39:00,
2013-07-05 08:49:00,72.0,57.0,-100.00,SSW,206,10.0,16.0,59,0.00,,,0.00,263.000000,,2013-07-05 13:49:00,
2013-07-05 08:58:00,72.0,57.0,-100.00,SSW,206,10.0,16.0,59,0.00,,,0.00,263.000000,,2013-07-05 13:58:00,
2013-07-05 09:29:00,74.0,57.0,-100.00,SSW,205,10.0,18.0,56,0.00,,,0.00,407.000000,,2013-07-05 14:29:00,
2013-07-05 09:47:00,74.0,57.0,-100.00,SSW,205,10.0,18.0,56,0.00,,,0.00,407.000000,,2013-07-05 14:47:00,
2013-07-05 10:34:00,78.0,61.0,-100.00,SSW,208,11.0,19.0,55,0.00,,,-99.99,496.000000,,2013-07-05 15:34:00,
2013-07-05 10:43:00,78.0,61.0,-100.00,SSW,208,11.0,19.0,55,0.00,,,-99.99,496.000000,,2013-07-05 15:43:00,
2013-07-05 11:02:00,78.0,61.0,-100.00,SSW,208,11.0,19.0,55,0.00,,,-99.99,496.000000,,2013-07-05 16:02:00,
2013-07-05 11:22:00,80.0,58.0,-100.00,SSW,203,16.0,25.0,47,0.00,,,0.00,780.000000,,2013-07-05 16:22:00,
2013-07-05 11:33:00,80.0,58.0,-100.00,SSW,203,16.0,25.0,47,0.00,,,0.00,780.000000,,2013-07-05 16:33:00,
2013-07-05 11:44:00,80.0,58.0,-100.00,SSW,203,16.0,25.0,47,0.00,,,0.00,780.000000,,2013-07-05 16:44:00,
2013-07-05 11:53:00,80.0,58.0,-100.00,SSW,203,16.0,25.0,47,0.00,,,0.00,780.000000,,2013-07-05 16:53:00,
2013-07-05 12:02:00,80.0,58.0,-100.00,SSW,203,16.0,25.0,47,0.00,,,0.00,780.000000,,2013-07-05 17:02:00,
2013-07-05 12:22:00,83.0,59.0,-100.00,SSW,202,17.0,25.0,44,0.00,,,0.00,901.000000,,2013-07-05 17:22:00,
2013-07-05 12:33:00,83.0,59.0,-100.00,SSW,202,17.0,25.0,44,0.00,,,0.00,901.000000,,2013-07-05 17:33:00,
2013-07-05 12:43:00,83.0,59.0,-100.00,SSW,202,17.0,25.0,44,0.00,,,0.00,901.000000,,2013-07-05 17:43:00,
2013-07-05 12:53:00,83.0,59.0,-100.00,SSW,202,17.0,25.0,44,0.00,,,0.00,901.000000,,2013-07-05 17:53:00,
2013-07-05 13:01:00,83.0,59.0,-100.00,SSW,202,17.0,25.0,44,0.00,,,0.00,901.000000,,2013-07-05 18:01:00,
2013-07-05 13:22:00,85.0,58.0,-100.00,SSW,198,16.0,25.0,40,0.00,,,0.00,971.000000,,2013-07-05 18:22:00,
2013-07-05 13:33:00,85.0,58.0,-100.00,SSW,198,16.0,25.0,40,0.00,,,0.00,971.000000,,2013-07-05 18:33:00,
2013-07-05 13:43:00,85.0,58.0,-100.00,SSW,198,16.0,25.0,40,0.00,,,0.00,971.000000,,2013-07-05 18:43:00,
2013-07-05 13:53:00,85.0,58.0,-100.00,SSW,198,16.0,25.0,40,0.00,,,0.00,971.000000,,2013-07-05 18:53:00,
2013-07-05 14:01:00,85.0,58.0,-100.00,SSW,198,16.0,25.0,40,0.00,,,0.00,971.000000,,2013-07-05 19:01:00,
2013-07-05 14:22:00,85.0,59.0,-100.00,SSW,206,14.0,27.0,42,0.00,,,0.00,769.000000,,2013-07-05 19:22:00,
2013-07-05 14:34:00,85.0,59.0,-100.00,SSW,206,14.0,27.0,42,0.00,,,0.00,769.000000,,2013-07-05 19:34:00,
2013-07-05 14:43:00,85.0,59.0,-100.00,SSW,206,14.0,27.0,42,0.00,,,0.00,769.000000,,2013-07-05 19:43:00,
2013-07-05 14:53:00,85.0,59.0,-100.00,SSW,206,14.0,27.0,42,0.00,,,0.00,769.000000,,2013-07-05 19:53:00,
2013-07-05 15:02:00,85.0,59.0,-100.00,SSW,206,14.0,27.0,42,0.00,,,0.00,769.000000,,2013-07-05 20:02:00,
2013-07-05 15:22:00,83.0,55.0,-100.00,SSW,200,16.0,29.0,38,0.00,,,0.00,719.000000,,2013-07-05 20:22:00,
2013-07-05 15:33:00,83.0,55.0,-100.00,SSW,200,16.0,29.0,38,0.00,,,0.00,719.000000,,2013-07-05 20:33:00,
2013-07-05 15:43:00,83.0,55.0,-100.00,SSW,200,16.0,29.0,38,0.00,,,0.00,719.000000,,2013-07-05 20:43:00,
2013-07-05 15:53:00,83.0,55.0,-100.00,SSW,200,16.0,29.0,38,0.00,,,0.00,719.000000,,2013-07-05 20:53:00,
2013-07-05 16:01:00,83.0,55.0,-100.00,SSW,200,16.0,29.0,38,0.00,,,0.00,719.000000,,2013-07-05 21:01:00,
2013-07-05 16:22:00,85.0,59.0,-100.00,SSW,213,15.0,24.0,41,0.00,,,0.00,723.000000,,2013-07-05 21:22:00,
2013-07-05 16:34:00,85.0,59.0,-100.00,SSW,213,15.0,24.0,41,0.00,,,0.00,723.000000,,2013-07-05 21:34:00,
2013-07-05 16:43:00,85.0,59.0,-100.00,SSW,213,15.0,24.0,41,0.00,,,0.00,723.000000,,2013-07-05 21:43:00,
2013-07-05 16:53:00,85.0,59.0,-100.00,SSW,213,15.0,24.0,41,0.00,,,0.00,723.000000,,2013-07-05 21:53:00,
2013-07-05 17:01:00,85.0,59.0,-100.00,SSW,213,15.0,24.0,41,0.00,,,0.00,723.000000,,2013-07-05 22:01:00,
2013-07-05 17:22:00,83.0,59.0,-100.00,SSW,205,14.0,26.0,44,0.00,,,0.00,596.000000,,2013-07-05 22:22:00,
2013-07-05 17:34:00,83.0,59.0,-100.00,SSW,205,14.0,26.0,44,0.00,,,0.00,596.000000,,2013-07-05 22:34:00,
2013-07-05 17:43:00,83.0,59.0,-100.00,SSW,205,14.0,26.0,44,0.00,,,0.00,596.000000,,2013-07-05 22:43:00,
2013-07-05 17:53:00,83.0,59.0,-100.00,SSW,205,14.0,26.0,44,0.00,,,0.00,596.000000,,2013-07-05 22:53:00,
2013-07-05 18:02:00,83.0,59.0,-100.00,SSW,205,14.0,26.0,44,0.00,,,0.00,596.000000,,2013-07-05 23:02:00,
2013-07-05 18:23:00,84.0,61.0,-100.00,SSW,203,13.0,22.0,46,0.00,,,0.00,446.000000,,2013-07-05 23:23:00,
2013-07-05 18:32:00,84.0,61.0,-100.00,SSW,203,13.0,22.0,46,0.00,,,0.00,446.000000,,2013-07-05 23:32:00,
2013-07-05 18:43:00,84.0,61.0,-100.00,SSW,203,13.0,22.0,46,0.00,,,0.00,446.000000,,2013-07-05 23:43:00,
2013-07-05 18:53:00,84.0,61.0,-100.00,SSW,203,13.0,22.0,46,0.00,,,0.00,446.000000,,2013-07-05 23:53:00,
2013-07-05 19:01:00,84.0,61.0,-100.00,SSW,203,13.0,22.0,46,0.00,,,0.00,446.000000,,2013-07-06 00:01:00,
2013-07-05 19:22:00,82.0,60.0,-100.00,SSW,210,11.0,21.0,48,0.00,,,0.00,296.000000,,2013-07-06 00:22:00,
2013-07-05 19:33:00,82.0,60.0,-100.00,SSW,210,11.0,21.0,48,0.00,,,0.00,296.000000,,2013-07-06 00:33:00,
2013-07-05 19:43:00,82.0,60.0,-100.00,SSW,210,11.0,21.0,48,0.00,,,0.00,296.000000,,2013-07-06 00:43:00,
2013-07-05 19:53:00,82.0,60.0,-100.00,SSW,210,11.0,21.0,48,0.00,,,0.00,296.000000,,2013-07-06 00:53:00,
2013-07-05 20:02:00,82.0,60.0,-100.00,SSW,210,11.0,21.0,48,0.00,,,0.00,296.000000,,2013-07-06 01:02:00,
2013-07-05 20:22:00,81.0,61.0,-100.00,SSW,197,10.0,18.0,50,0.00,,,0.00,174.000000,,2013-07-06 01:22:00,
2013-07-05 20:33:00,81.0,61.0,-100.00,SSW,197,10.0,18.0,50,0.00,,,0.00,174.000000,,2013-07-06 01:33:00,
2013-07-05 20:43:00,81.0,61.0,-100.00,SSW,197,10.0,18.0,50,0.00,,,0.00,174.000000,,2013-07-06 01:43:00,
2013-07-05 20:53:00,81.0,61.0,-100.00,SSW,197,10.0,18.0,50,0.00,,,0.00,174.000000,,2013-07-06 01:53:00,
2013-07-05 21:02:00,81.0,61.0,-100.00,SSW,197,10.0,18.0,50,0.00,,,0.00,174.000000,,2013-07-06 02:02:00,
2013-07-05 21:22:00,78.0,61.0,-100.00,SSW,192,7.0,16.0,55,0.00,,,0.00,52.000000,,2013-07-06 02:22:00,
2013-07-05 21:34:00,78.0,61.0,-100.00,SSW,192,7.0,16.0,55,0.00,,,0.00,52.000000,,2013-07-06 02:34:00,
2013-07-05 21:43:00,78.0,61.0,-100.00,SSW,192,7.0,16.0,55,0.00,,,0.00,52.000000,,2013-07-06 02:43:00,
2013-07-05 21:53:00,78.0,61.0,-100.00,SSW,192,7.0,16.0,55,0.00,,,0.00,52.000000,,2013-07-06 02:53:00,
2013-07-05 22:02:00,78.0,61.0,-100.00,SSW,192,7.0,16.0,55,0.00,,,0.00,52.000000,,2013-07-06 03:02:00,
2013-07-05 22:22:00,75.0,61.0,-100.00,South,191,7.0,9.0,62,0.00,,,0.00,1.000000,,2013-07-06 03:22:00,
2013-07-05 22:34:00,75.0,61.0,-100.00,South,191,7.0,9.0,62,0.00,,,0.00,1.000000,,2013-07-06 03:34:00,
2013-07-05 22:43:00,75.0,61.0,-100.00,South,191,7.0,9.0,62,0.00,,,0.00,1.000000,,2013-07-06 03:43:00,
2013-07-05 22:53:00,75.0,61.0,-100.00,South,191,7.0,9.0,62,0.00,,,0.00,1.000000,,2013-07-06 03:53:00,
2013-07-05 23:02:00,75.0,61.0,-100.00,South,191,7.0,9.0,62,0.00,,,0.00,1.000000,,2013-07-06 04:02:00,
2013-07-05 23:22:00,73.0,61.0,-100.00,South,181,6.0,13.0,66,0.00,,,0.00,0.000000,,2013-07-06 04:22:00,
2013-07-05 23:33:00,73.0,61.0,-100.00,South,181,6.0,13.0,66,0.00,,,0.00,0.000000,,2013-07-06 04:33:00,
2013-07-05 23:43:00,73.0,61.0,-100.00,South,181,6.0,13.0,66,0.00,,,0.00,0.000000,,2013-07-06 04:43:00,
2013-07-05 23:53:00,73.0,61.0,-100.00,South,181,6.0,13.0,66,0.00,,,0.00,0.000000,,2013-07-06 04:53:00,